COSMOS 2459 (731)

Last updated on Wed Dec 22 2021 00:02:59 GMT+0000 (Coordinated Universal Time)

1 36400U 10007A 21355.41361304 -.00000044 00000+0 00000+0 0 9996 2 36400 65.9722 9.4794 0025968 345.1321 350.5427 2.13112616 91883
UTC large
Height (km)
Speed (km/s)
/
Latitude / Longitude
Inclination (degrees)
Orbital Period (minutes)
Azimuth
Elevation
Range (km)
Doppler Factor

Next 0 passes for location: London (51.5072 / 0.1276)

Sorry there are no passes over London.
COSMOS 2459 (731)